DW2819 Weather Reports


Display with metric or nautical units.
time (UTC)temp
F
wind
direction
speed
MPH
gust
MPH
rain 1hr
in
rain 24hr
in
rain mn
in
humidity
%
barometer
mb
20260509140410 55 73 3.0 10.0 0.00 0.00 0.00 27 1026.6
20260509135410 55 125 5.0 13.0 0.00 0.00 0.00 27 1026.6
20260509134911 55 142 3.0 13.0 0.00 0.00 0.00 27 1026.7
20260509134411 55 168 5.0 13.0 0.00 0.00 0.00 27 1026.7
20260509133413 56 0 6.0 12.0 0.00 0.00 0.00 28 1026.9
20260509132912 56 76 4.0 12.0 0.00 0.00 0.00 28 1026.8
20260509132410 56 188 4.0 12.0 0.00 0.00 0.00 28 1026.8
20260509131912 56 179 4.0 9.0 0.00 0.00 0.00 28 1027.0
20260509131414 56 86 5.0 10.0 0.00 0.00 0.00 27 1026.9
20260509130908 56 134 3.0 10.0 0.00 0.00 0.00 28 1027.1
20260509130405 56 83 4.0 11.0 0.00 0.00 0.00 28 1027.1
20260509125907 56 30 5.0 11.0 0.00 0.00 0.00 27 1027.1
20260509125402 56 113 5.0 10.0 0.00 0.00 0.00 28 1027.2
20260509124903 56 52 4.0 11.0 0.00 0.00 0.00 28 1027.1
20260509124401 56 120 3.0 12.0 0.00 0.00 0.00 27 1027.1
20260509123909 56 62 3.0 12.0 0.00 0.00 0.00 28 1027.1
20260509123407 56 61 5.0 9.0 0.00 0.00 0.00 29 1027.2
20260509122904 56 145 2.0 10.0 0.00 0.00 0.00 29 1027.4
20260509122401 56 61 4.0 10.0 0.00 0.00 0.00 28 1027.4
20260509121903 56 152 4.0 10.0 0.00 0.00 0.00 28 1027.5
20260509121407 56 155 4.0 11.0 0.00 0.00 0.00 29 1027.4
20260509120337 56 63 5.0 12.0 0.00 0.00 0.00 28 1027.5
20260509115829 56 73 6.0 12.0 0.00 0.00 0.00 28 1027.6
20260509115333 56 61 3.0 10.0 0.00 0.00 0.00 28 1027.7
20260509114830 56 66 6.0 11.0 0.00 0.00 0.00 28 1027.7
20260509114329 56 127 5.0 11.0 0.00 0.00 0.00 28 1027.8
20260509113830 56 99 4.0 7.0 0.00 0.00 0.00 29 1027.7
20260509113333 56 116 4.0 13.0 0.00 0.00 0.00 28 1027.7
20260509112830 56 171 6.0 13.0 0.00 0.00 0.00 28 1027.8
20260509111827 56 130 7.0 14.0 0.00 0.00 0.00 27 1027.9
20260509111313 56 161 3.0 10.0 0.00 0.00 0.00 28 1027.9
20260509110808 56 75 2.0 13.0 0.00 0.00 0.00 28 1028.0
20260509110310 56 109 6.0 15.0 0.00 0.00 0.00 26 1027.9
20260509105808 57 233 5.0 15.0 0.00 0.00 0.00 26 1028.0
20260509105309 57 117 4.0 12.0 0.00 0.00 0.00 28 1028.0
20260509104808 56 149 4.0 12.0 0.00 0.00 0.00 28 1028.1
20260509103809 58 276 3.0 12.0 0.00 0.00 0.00 28 1028.0
20260509103310 58 92 5.0 12.0 0.00 0.00 0.00 28 1028.1
20260509102310 58 32 4.0 7.0 0.00 0.00 0.00 28 1028.2
20260509101810 57 23 2.0 9.0 0.00 0.00 0.00 30 1028.1
20260509101310 57 158 5.0 10.0 0.00 0.00 0.00 27 1028.3
20260509100810 57 71 5.0 10.0 0.00 0.00 0.00 26 1028.3
20260509100310 57 69 3.0 7.0 0.00 0.00 0.00 30 1028.4
20260509095810 57 103 3.0 9.0 0.00 0.00 0.00 28 1028.3
20260509095308 56 56 5.0 9.0 0.00 0.00 0.00 28 1028.4
20260509093811 56 104 8.0 14.0 0.00 0.00 0.00 29 1028.7
20260509093310 57 89 3.0 13.0 0.00 0.00 0.00 29 1028.6
20260509091810 57 92 6.0 9.0 0.00 0.00 0.00 30 1028.6
20260509090810 56 90 4.0 10.0 0.00 0.00 0.00 29 1028.7
20260509090310 57 183 6.0 10.0 0.00 0.00 0.00 30 1028.8
20260509085810 56 155 4.0 9.0 0.00 0.00 0.00 30 1028.8
20260509084811 56 82 4.0 9.0 0.00 0.00 0.00 31 1028.9
20260509084309 56 145 4.0 7.0 0.00 0.00 0.00 31 1029.0
20260509083310 55 176 4.0 10.0 0.00 0.00 0.00 32 1029.0
20260509082309 55 104 6.0 10.0 0.00 0.00 0.00 32 1029.1
20260509081811 56 257 2.0 6.0 0.00 0.00 0.00 34 1029.1
20260509081310 55 44 2.0 6.0 0.00 0.00 0.00 35 1029.1
20260509080809 55 39 3.0 9.0 0.00 0.00 0.00 33 1029.2
20260509080310 55 133 4.0 9.0 0.00 0.00 0.00 33 1029.3
20260509075812 55 89 1.0 11.0 0.00 0.00 0.00 34 1029.2
20260509075311 55 90 3.0 11.0 0.00 0.00 0.00 34 1029.3
20260509074809 55 130 4.0 11.0 0.00 0.00 0.00 34 1029.2
20260509074312 55 141 3.0 7.0 0.00 0.00 0.00 34 1029.3
20260509073810 56 144 4.0 7.0 0.00 0.00 0.00 35 1029.3
20260509073309 55 207 2.0 7.0 0.00 0.00 0.00 36 1029.3
20260509072310 55 8 2.0 7.0 0.00 0.00 0.00 38 1029.2
20260509071810 54 221 4.0 7.0 0.00 0.00 0.00 39 1029.2
20260509071325 54 137 2.0 5.0 0.00 0.00 0.00 40 1029.2
20260509070810 53 111 4.0 10.0 0.00 0.00 0.00 39 1029.3
20260509070313 53 76 5.0 10.0 0.00 0.00 0.00 39 1029.3
20260509065809 54 113 4.0 7.0 0.00 0.00 0.00 41 1029.4
20260509065309 53 32 3.0 4.0 0.00 0.00 0.00 42 1029.2
20260509064810 53 72 2.0 4.0 0.00 0.00 0.00 42 1029.3
20260509064325 53 180 2.0 3.0 0.00 0.00 0.00 44 1029.3
20260509063812 53 168 2.0 3.0 0.00 0.00 0.00 45 1029.4
20260509062309 51 76 1.0 5.0 0.00 0.00 0.00 45 1029.3
20260509061808 51 125 3.0 5.0 0.00 0.00 0.00 45 1029.3
20260509061308 51 130 3.0 4.0 0.00 0.00 0.00 45 1029.4
20260509060809 51 75 3.0 5.0 0.00 0.00 0.00 45 1029.4
20260509060313 51 102 3.0 5.0 0.00 0.00 0.00 46 1029.5
20260509055809 51 58 3.0 5.0 0.00 0.00 0.00 47 1029.4
20260509055311 49 18 1.0 5.0 0.00 0.00 0.00 49 1029.4
20260509054810 49 162 2.0 5.0 0.00 0.00 0.00 48 1029.4
20260509053809 49 99 2.0 3.0 0.00 0.00 0.00 49 1029.4
20260509053309 48 83 2.0 4.0 0.00 0.00 0.00 51 1029.3
20260509052809 48 134 2.0 5.0 0.00 0.00 0.00 51 1029.3
20260509052308 48 124 2.0 5.0 0.00 0.00 0.00 52 1029.3
20260509051808 47 78 1.0 3.0 0.00 0.00 0.00 53 1029.2
20260509051311 47 73 2.0 4.0 0.00 0.00 0.00 53 1029.2
20260509050810 46 100 2.0 4.0 0.00 0.00 0.00 55 1029.3
20260509050308 46 72 2.0 2.0 0.00 0.00 0.00 57 1029.4
20260509045810 45 68 1.0 3.0 0.00 0.00 0.00 58 1029.3
20260509044813 43 73 1.0 2.0 0.00 0.00 0.00 62 1029.3
20260509044310 42 73 1.0 2.0 0.00 0.00 0.00 66 1029.4
20260509043815 41 69 1.0 2.0 0.00 0.00 0.00 68 1029.3
20260509042310 39 118 0.0 1.0 0.00 0.00 0.00 72 1029.2
20260509041808 39 118 0.0 1.0 0.00 0.00 0.00 73 1029.2
20260509040804 38 118 0.0 0.0 0.00 0.00 0.00 74 1029.2
20260509040305 37 118 0.0 0.0 0.00 0.00 0.00 75 1029.2
20260509035804 37 118 0.0 0.0 0.00 0.00 0.00 75 1029.2
20260509035305 36 118 0.0 0.0 0.00 0.00 0.00 75 1029.1
20260509034801 36 118 0.0 0.0 0.00 0.00 0.00 75 1029.1
20260509034301 35 118 0.0 0.0 0.00 0.00 0.00 75 1029.2
20260509033801 35 118 0.0 0.0 0.00 0.00 0.00 75 1029.1
20260509032805 34 118 0.0 0.0 0.00 0.00 0.00 76 1029.0
20260509032306 34 118 0.0 0.0 0.00 0.00 0.00 76 1029.0
20260509031256 33 118 0.0 1.0 0.00 0.00 0.00 77 1028.9
20260509030756 33 118 0.0 1.0 0.00 0.00 0.00 77 1029.0
20260509025737 33 118 0.0 1.0 0.00 0.00 0.00 77 1028.8
20260509025236 33 118 0.0 1.0 0.00 0.00 0.00 77 1028.8
20260509024729 32 118 0.0 3.0 0.00 0.00 0.00 77 1028.8
20260509024225 32 120 1.0 3.0 0.00 0.00 0.00 77 1028.8
20260509023718 32 148 0.0 0.0 0.00 0.00 0.00 77 1028.8
20260509022211 32 148 0.0 0.0 0.00 0.00 0.00 77 1028.7
20260509021708 32 148 0.0 0.0 0.00 0.00 0.00 77 1028.7
20260509020711 32 148 0.0 0.0 0.00 0.00 0.00 77 1028.7
20260509015708 32 148 0.0 0.0 0.00 0.00 0.00 77 1028.7
20260509015209 32 148 0.0 0.0 0.00 0.00 0.00 77 1028.7
20260509014714 32 148 0.0 0.0 0.00 0.00 0.00 77 1028.7
20260509014208 32 148 0.0 0.0 0.00 0.00 0.00 77 1028.7
20260509013708 32 148 0.0 0.0 0.00 0.00 0.00 77 1028.7
20260509012709 32 148 0.0 0.0 0.00 0.00 0.00 77 1028.6
20260509012209 32 148 0.0 0.0 0.00 0.00 0.00 76 1028.7
20260509011209 32 148 0.0 0.0 0.00 0.00 0.00 77 1028.6
20260509010709 32 148 0.0 0.0 0.00 0.00 0.00 76 1028.6
20260509010213 32 148 0.0 0.0 0.00 0.00 0.00 76 1028.6
20260509005709 32 148 0.0 0.0 0.00 0.00 0.00 76 1028.6
20260509005208 32 148 0.0 0.0 0.00 0.00 0.00 75 1028.7
20260509004707 33 148 0.0 0.0 0.00 0.00 0.00 75 1028.5
20260509003708 33 148 0.0 0.0 0.00 0.00 0.00 75 1028.5
20260509003207 33 148 0.0 0.0 0.00 0.00 0.00 75 1028.4
20260509002709 33 148 0.0 0.0 0.00 0.00 0.00 74 1028.4
20260509002209 33 148 0.0 0.0 0.00 0.00 0.00 74 1028.4
20260509001709 33 148 0.0 0.0 0.00 0.00 0.00 74 1028.4
20260509001209 33 148 0.0 0.0 0.00 0.00 0.00 74 1028.3
20260509000712 33 148 0.0 0.0 0.00 0.00 0.00 74 1028.2
20260509000211 33 148 0.0 1.0 0.00 0.00 0.00 74 1028.4
20260508235710 33 148 0.0 1.0 0.00 0.00 0.00 74 1028.3
20260508235214 33 148 0.0 1.0 0.00 0.00 0.00 73 1028.4
20260508234713 34 148 0.0 1.0 0.00 0.00 0.00 73 1028.5
20260508234225 34 148 0.0 0.0 0.00 0.00 0.00 72 1028.3
20260508233715 34 148 0.0 0.0 0.00 0.00 0.00 72 1028.2
20260508233210 35 148 0.0 0.0 0.00 0.00 0.00 72 1028.2
20260508232712 35 148 0.0 1.0 0.00 0.00 0.00 72 1028.2
20260508232234 35 148 0.0 1.0 0.00 0.00 0.00 72 1028.2
20260508231705 35 148 0.0 0.0 0.00 0.00 0.00 72 1028.1
20260508230705 35 148 0.0 0.0 0.00 0.00 0.00 71 1028.1
20260508230208 35 148 0.0 0.0 0.00 0.00 0.00 72 1028.0
20260508225702 35 148 0.0 0.0 0.00 0.00 0.00 72 1028.0
20260508225204 35 148 0.0 0.0 0.00 0.00 0.00 71 1028.0
20260508224704 35 148 0.0 0.0 0.00 0.00 0.00 71 1028.0
20260508224205 35 148 0.0 0.0 0.00 0.00 0.00 71 1028.0
20260508223203 36 148 0.0 0.0 0.00 0.00 0.00 71 1028.1
20260508222704 36 148 0.0 0.0 0.00 0.00 0.00 70 1028.1
20260508222205 36 148 0.0 0.0 0.00 0.00 0.00 70 1028.0
20260508221701 36 148 0.0 0.0 0.00 0.00 0.00 69 1028.1
20260508221204 37 148 0.0 0.0 0.00 0.00 0.00 69 1028.1
20260508220659 37 148 0.0 0.0 0.00 0.00 0.00 68 1028.1
20260508220158 37 148 0.0 0.0 0.00 0.00 0.00 68 1028.1
20260508215655 37 148 0.0 1.0 0.00 0.00 0.00 68 1028.0
20260508214632 38 148 1.0 1.0 0.00 0.00 0.00 68 1028.0
20260508214129 38 148 0.0 1.0 0.00 0.00 0.00 68 1028.1
20260508213622 38 148 1.0 1.0 0.00 0.00 0.00 67 1028.0
20260508213117 38 148 0.0 1.0 0.00 0.00 0.00 67 1028.0
20260508212610 38 148 0.0 2.0 0.00 0.00 0.00 67 1028.0
20260508212113 38 158 1.0 2.0 0.00 0.00 0.00 67 1028.0
20260508210614 39 176 0.0 0.0 0.00 0.00 0.00 65 1027.9
20260508205612 39 176 0.0 0.0 0.00 0.00 0.00 66 1027.8
20260508205109 39 176 0.0 0.0 0.00 0.00 0.00 65 1027.8
20260508204609 40 176 0.0 0.0 0.00 0.00 0.00 64 1027.7
20260508204108 40 176 0.0 0.0 0.00 0.00 0.00 64 1027.7
20260508203609 40 176 0.0 0.0 0.00 0.00 0.00 63 1027.7
20260508203108 40 176 0.0 0.0 0.00 0.00 0.00 63 1027.6
20260508202608 41 176 0.0 0.0 0.00 0.00 0.00 62 1027.7
20260508202109 41 176 0.0 0.0 0.00 0.00 0.00 61 1027.7
20260508201622 41 176 0.0 0.0 0.00 0.00 0.00 61 1027.5
20260508201108 41 176 0.0 0.0 0.00 0.00 0.00 61 1027.6
20260508200610 42 176 0.0 0.0 0.00 0.00 0.00 60 1027.6
20260508200108 42 176 0.0 0.0 0.00 0.00 0.00 58 1027.5
20260508195109 43 176 0.0 0.0 0.00 0.00 0.00 59 1027.5
20260508194610 44 176 0.0 0.0 0.00 0.00 0.00 56 1027.3
20260508194108 44 176 0.0 0.0 0.00 0.00 0.00 56 1027.3
20260508193111 45 176 0.0 0.0 0.00 0.00 0.00 54 1027.1
20260508192110 46 176 0.0 0.0 0.00 0.00 0.00 54 1027.1
20260508191608 46 176 0.0 0.0 0.00 0.00 0.00 53 1027.1
20260508191108 46 176 0.0 0.0 0.00 0.00 0.00 53 1027.0
20260508190610 46 176 0.0 0.0 0.00 0.00 0.00 53 1027.0
20260508190107 46 176 0.0 0.0 0.00 0.00 0.00 52 1027.1
20260508185608 46 176 0.0 0.0 0.00 0.00 0.00 53 1027.1
20260508185107 47 176 0.0 0.0 0.00 0.00 0.00 52 1027.1
20260508184607 47 176 0.0 1.0 0.00 0.00 0.00 51 1027.1
20260508184109 47 176 0.0 1.0 0.00 0.00 0.00 50 1027.2
20260508183607 47 176 0.0 0.0 0.00 0.00 0.00 49 1027.2
20260508183112 48 176 0.0 0.0 0.00 0.00 0.00 49 1027.2
20260508182609 48 176 0.0 0.0 0.00 0.00 0.00 48 1027.1
20260508181608 49 176 0.0 0.0 0.00 0.00 0.00 47 1027.0
20260508180611 49 176 0.0 1.0 0.00 0.00 0.00 46 1026.9
20260508175609 50 138 0.0 1.0 0.00 0.00 0.00 45 1026.9
20260508175109 50 138 0.0 1.0 0.00 0.00 0.00 44 1026.8
20260508174614 51 138 0.0 2.0 0.00 0.00 0.00 44 1026.8
20260508174112 51 138 0.0 3.0 0.00 0.00 0.00 46 1026.7
20260508173612 51 144 1.0 3.0 0.00 0.00 0.00 43 1026.8
20260508173108 52 162 1.0 3.0 0.00 0.00 0.00 42 1026.6
20260508172612 52 172 0.0 1.0 0.00 0.00 0.00 43 1026.6
20260508172110 52 173 0.0 3.0 0.00 0.00 0.00 41 1026.5
20260508171602 53 173 0.0 3.0 0.00 0.00 0.00 40 1026.4
20260508171102 53 200 1.0 2.0 0.00 0.00 0.00 40 1026.4
20260508170601 53 38 0.0 3.0 0.00 0.00 0.00 42 1026.3
20260508170107 53 44 1.0 3.0 0.00 0.00 0.00 39 1026.3
20260508165536 54 188 1.0 9.0 0.00 0.00 0.00 38 1026.3
20260508164534 54 193 1.0 5.0 0.00 0.00 0.00 37 1026.1
20260508163534 55 140 2.0 7.0 0.00 0.00 0.00 36 1026.1
20260508163034 56 180 3.0 7.0 0.00 0.00 0.00 36 1026.0
20260508162029 58 78 2.0 3.0 0.00 0.00 0.00 25 1025.8
20260508161510 58 345 2.0 3.0 0.00 0.00 0.00 24 1025.7
20260508160510 58 59 2.0 4.0 0.00 0.00 0.00 23 1025.6
20260508160011 58 44 1.0 4.0 0.00 0.00 0.00 23 1025.6
20260508155508 58 17 3.0 4.0 0.00 0.00 0.00 23 1025.6
20260508154008 59 69 2.0 7.0 0.00 0.00 0.00 23 1025.6
20260508153507 59 316 3.0 7.0 0.00 0.00 0.00 23 1025.6
20260508153012 59 44 2.0 4.0 0.00 0.00 0.00 23 1025.6
20260508152508 58 296 2.0 3.0 0.00 0.00 0.00 24 1025.6
20260508152011 58 330 0.0 7.0 0.00 0.00 0.00 25 1025.6
20260508151522 59 296 2.0 7.0 0.00 0.00 0.00 23 1025.6
20260508151008 58 0 1.0 4.0 0.00 0.00 0.00 24 1025.6
20260508150509 58 68 2.0 12.0 0.00 0.00 0.00 24 1025.6
20260508145007 58 65 2.0 10.0 0.00 0.00 0.00 22 1025.6
20260508144510 58 55 6.0 10.0 0.00 0.00 0.00 22 1025.7
20260508143510 58 128 3.0 7.0 0.00 0.00 0.00 22 1025.6
20260508143011 59 285 2.0 7.0 0.00 0.00 0.00 21 1025.6
20260508142011 59 341 5.0 10.0 0.00 0.00 0.00 21 1025.7
20260508141510 59 354 2.0 7.0 0.00 0.00 0.00 22 1025.6
20260508141008 59 13 3.0 7.0 0.00 0.00 0.00 22 1025.8